1535029200.51,3293,23.06,74548.3,19.59,7.27,6.83,0,*7D
1535029201.73,3294,23.06,74548.8,19.59,7.51,7.11,0,*71
1535029202.89,3295,23.06,74548.3,19.61,6.75,6.29,0,*76
1535029204.14,3296,23.06,74550.0,19.59,7.23,6.73,0,*73
1535029205.38,3297,23.06,74546.8,19.59,7.11,6.69,0,*78
1535029206.59,3298,23.06,74550.0,19.57,7.15,6.73,0,*76
1535029207.84,3299,23.06,74550.3,19.55,7.65,7.19,0,*7F
1535029209.03,3300,23.06,74548.0,19.57,7.83,7.33,0,*7C
1535029210.25,3301,23.06,74548.3,19.55,7.87,7.37,0,*7F
1535029211.47,3302,23.06,74552.8,19.57,7.95,7.47,0,*7A
1535029212.69,3303,23.06,74550.5,19.57,7.83,7.15,0,*7B
1535029213.88,3304,23.06,74550.5,19.57,7.69,7.05,0,*79
1535029215.05,3305,23.06,74548.3,19.57,7.59,7.01,0,*7F
1535029216.22,3306,23.06,74548.5,19.57,7.37,6.83,0,*7F
1535029217.41,3307,23.06,74548.0,19.57,7.33,6.69,0,*7E
1535029218.63,3308,23.06,74550.0,19.57,7.73,7.11,0,*7B
1535029219.82,3309,23.06,74544.8,19.57,7.61,7.05,0,*7C
1535029220.99,3310,23.06,74546.0,19.57,8.05,7.51,0,*78
1535029222.19,3311,23.06,74548.3,19.57,7.95,7.33,0,*7B
1535029223.41,3312,23.06,74548.5,19.57,7.47,6.91,0,*7E
1535029224.58,3313,23.06,74550.0,19.57,7.37,6.83,0,*7B
1535029225.78,3314,23.06,74544.3,19.55,7.55,7.01,0,*71
1535029226.98,3315,23.06,74550.5,19.57,7.51,6.91,0,*7E
1535029228.22,3316,23.06,74548.5,19.55,7.87,7.23,0,*7C
1535029229.47,3317,23.06,74546.5,19.55,7.91,7.23,0,*7A
1535029230.64,3318,23.06,74548.8,19.57,8.27,7.59,0,*78
1535029231.87,3319,23.06,74548.3,19.57,8.29,7.69,0,*74
1535029233.09,3320,23.06,74546.5,19.57,8.51,7.69,0,*71
1535029234.32,3321,23.06,74546.8,19.57,8.51,7.69,0,*70
1535029235.52,3322,23.06,74548.0,19.57,8.59,7.51,0,*70
1535029236.71,3323,23.06,74548.0,19.55,7.97,7.01,0,*7B
1535029237.91,3324,23.06,74548.0,19.57,8.27,7.27,0,*7E
1535029239.13,3325,23.06,74546.3,19.57,8.51,7.47,0,*78
1535029240.35,3326,23.06,74548.8,19.57,8.37,7.27,0,*7D
1535029241.52,3327,23.06,74546.8,19.57,8.09,7.01,0,*75
1535029242.69,3328,23.06,74544.0,19.57,8.61,7.51,0,*71
1535029243.87,3329,23.06,74546.3,19.57,8.79,7.59,0,*71
1535029245.05,3330,23.06,74544.5,19.57,8.79,7.51,0,*71
1535029246.27,3331,23.06,74544.8,19.57,8.59,7.15,0,*72
1535029247.47,3332,23.06,74544.8,19.57,8.37,6.93,0,*76
1535029248.64,3333,23.06,74544.8,19.57,8.27,6.79,0,*72
1535029249.84,3334,23.06,74544.8,19.57,8.19,6.73,0,*72
1535029251.03,3335,23.06,74546.5,19.57,8.27,6.69,0,*75
1535029252.2,3336,23.06,74544.8,19.57,8.69,7.05,0,*77
1535029253.36,3337,23.06,74546.0,19.57,8.69,7.05,0,*76
1535029254.53,3338,23.06,74546.3,19.57,8.79,7.01,0,*7C
1535029255.77,3339,23.06,74546.5,19.59,8.47,6.57,0,*7C
1535029256.97,3340,23.06,74546.8,19.57,8.27,6.43,0,*7F
1535029258.14,3341,23.06,74546.5,19.57,8.69,6.79,0,*7D
1535029259.36,3342,23.06,74544.0,19.57,8.59,6.53,0,*75
1535029260.55,3343,23.06,74546.3,19.57,8.29,6.21,0,*76
1535029261.75,3344,23.06,74546.0,19.57,7.95,5.67,0,*78
1535029263.0,3345,23.06,74546.8,19.55,7.87,5.51,0,*7D
1535029264.25,3346,23.06,74546.3,19.55,7.91,5.51,0,*79
1535029265.43,3347,23.06,74544.5,19.53,8.05,5.63,0,*7D
1535029266.64,3348,23.06,74546.5,19.49,8.13,5.59,0,*77
1535029267.81,3349,23.06,74544.5,19.49,8.01,5.49,0,*74
1535029269.0,3350,23.06,74544.3,19.49,8.23,5.59,0,*7D
1535029270.21,3351,23.06,74548.3,19.49,8.33,5.67,0,*70
1535029271.4,3352,23.06,74548.0,19.49,8.23,5.49,0,*7E
1535029272.58,3353,23.06,74544.5,19.45,7.79,4.89,0,*7E
1535029273.8,3354,23.06,74544.3,19.45,7.91,5.05,0,*7A
1535029275.01,3355,23.06,74546.5,19.45,7.91,4.89,0,*7E
1535029276.18,3356,23.06,74546.3,19.45,7.59,4.49,0,*75
1535029277.42,3357,23.06,74548.0,19.43,8.15,5.01,0,*78
1535029278.62,3358,23.06,74544.3,19.45,7.65,4.45,0,*78
1535029279.86,3359,23.06,74546.0,19.43,7.79,4.67,0,*72
1535029281.07,3360,23.06,74544.3,19.41,7.29,4.05,0,*7B
1535029282.3,3361,23.06,74546.0,19.39,7.27,3.93,0,*73
1535029283.5,3362,23.06,74544.0,19.39,7.97,4.53,0,*70
1535029284.7,3363,23.06,74544.8,19.37,7.37,4.01,0,*72
1535029285.9,3364,23.06,74544.8,19.37,7.83,4.41,0,*7E
1535029287.11,3365,23.06,74544.5,19.37,7.95,4.41,0,*78
1535029288.36,3366,23.06,74544.5,19.35,7.23,3.67,0,*77
1535029289.57,3367,23.06,74544.0,19.33,7.79,4.31,0,*7B
1535029290.78,3368,23.06,74546.5,19.35,7.79,4.15,0,*74
1535029291.98,3369,23.06,74544.0,19.33,7.87,4.33,0,*76
1535029293.16,3370,23.06,74546.3,19.33,7.55,3.85,0,*7B
1535029294.36,3371,23.06,74544.5,19.35,7.59,3.85,0,*70
1535029295.6,3372,23.06,74546.5,19.33,7.19,3.41,0,*79
1535029296.79,3373,23.06,74544.8,19.31,6.75,3.03,0,*77
1535029297.98,3374,23.06,74544.0,19.31,7.87,4.11,0,*78
1535029299.15,3375,23.06,74546.5,19.31,8.45,4.85,0,*75
1535029300.32,3376,23.06,74542.8,19.31,9.21,5.63,0,*7C
1535029301.53,3377,23.06,74542.0,19.33,8.69,4.93,0,*7C
1535029302.73,3378,23.06,74542.0,19.35,8.15,4.45,0,*75
1535029303.94,3379,23.06,74546.5,19.35,7.79,4.07,0,*77
1535029305.17,3380,23.06,74546.3,19.35,7.95,4.07,0,*73
1535029306.39,3381,23.06,74548.5,19.37,7.61,3.67,0,*7A
1535029307.57,3382,23.13,74550.5,19.37,7.59,3.59,0,*7F
1535029308.75,3383,23.06,74544.8,19.37,6.93,2.99,0,*74
1535029309.95,3384,23.06,74544.5,19.37,6.93,2.89,0,*72
1535029311.19,3385,23.06,74544.5,19.33,7.23,3.33,0,*7D
1535029312.44,3386,23.06,74546.3,19.35,6.57,2.55,0,*7B
1535029313.68,3387,23.06,74546.8,19.33,6.87,2.81,0,*78
1535029314.88,3388,23.06,74546.8,19.33,7.09,3.11,0,*78
1535029316.1,3389,23.06,74546.8,19.33,6.73,2.61,0,*73
1535029317.33,3390,23.06,74544.8,19.33,6.87,2.77,0,*77
1535029318.51,3391,23.06,74546.5,19.33,7.05,2.99,0,*7D
1535029319.74,3392,23.06,74546.8,19.33,6.43,2.21,0,*7E
1535029320.97,3393,23.06,74544.8,19.33,6.43,2.21,0,*7F
1535029322.21,3394,23.06,74546.5,19.27,6.35,2.17,0,*79
1535029323.4,3395,23.06,74544.5,19.31,6.93,2.69,0,*7A
1535029324.63,3396,23.06,74546.3,19.27,6.47,2.25,0,*7F
1535029325.83,3397,23.06,74544.3,19.27,6.51,2.27,0,*7B
1535029327.04,3398,23.06,74544.3,19.27,6.03,1.67,0,*74
1535029328.22,3399,23.06,74544.0,19.27,6.03,1.75,0,*76
1535029329.47,3400,23.06,74546.8,19.25,6.43,2.13,0,*74
1535029330.67,3401,23.06,74546.8,19.23,6.75,2.51,0,*70
1535029331.92,3402,23.06,74548.0,19.25,6.47,2.25,0,*77
1535029333.15,3403,23.06,74544.5,19.25,6.97,2.73,0,*78
1535029334.37,3404,23.06,74544.5,19.25,6.75,2.59,0,*7B
1535029335.59,3405,23.06,74548.8,19.25,6.47,2.31,0,*75
1535029336.84,3406,23.06,74546.3,19.25,6.47,2.25,0,*73
1535029338.06,3407,23.06,74546.8,19.25,5.95,1.59,0,*76
1535029339.24,3408,23.06,74544.8,19.25,5.29,0.97,0,*4D
1535029340.44,3409,23.06,74546.0,19.23,4.89,0.47,0,*4C
1535029341.62,3410,23.06,74546.8,19.23,5.45,1.09,0,*7E
1535029342.83,3411,23.06,74546.3,19.23,5.73,1.43,0,*74
1535029344.05,3412,23.06,74546.3,19.21,4.89,0.47,0,*44
1535029345.25,3413,23.06,74546.8,19.19,4.71,0.43,0,*4D
1535029346.5,3414,23.06,74546.8,19.17,5.05,0.75,0,*43
1535029347.66,3415,23.06,74544.5,19.15,5.15,1.01,0,*73
1535029348.88,3416,23.13,74548.0,19.13,5.59,1.43,0,*78
1535029350.1,3417,23.06,74544.3,19.13,5.59,1.47,0,*7D
1535029351.26,3418,23.06,74544.5,19.11,5.07,0.97,0,*47
1535029352.48,3419,23.06,74544.0,19.11,4.75,0.55,0,*4C
1535029353.68,3420,23.13,74544.8,19.11,4.97,0.97,0,*44
1535029354.92,3421,23.06,74544.5,19.09,4.79,0.71,0,*44
1535029356.12,3422,23.13,74550.5,19.07,4.37,0.29,0,*4E
1535029357.32,3423,23.06,74546.5,19.07,4.59,0.43,0,*4B
1535029358.52,3424,23.06,74544.8,19.01,4.49,0.43,0,*4B
1535029359.73,3425,23.06,74546.3,18.99,4.49,0.47,0,*4E
1535029360.95,3426,23.06,74546.5,18.99,5.07,1.09,0,*7D
1535029362.16,3427,23.06,74544.0,18.99,4.57,0.67,0,*41
1535029363.38,3428,23.13,74548.3,18.99,4.19,0.25,0,*42
1535029364.63,3429,23.06,74540.5,18.95,4.05,0.21,0,*46
1535029365.86,3430,23.06,74544.5,18.93,4.93,1.13,0,*77
1535029367.09,3431,23.06,74544.5,18.93,4.71,0.91,0,*41
1535029368.34,3432,23.06,74544.8,18.91,5.01,1.21,0,*7C
1535029369.54,3433,23.06,74546.0,18.91,5.45,1.79,0,*70
1535029370.78,3434,23.06,74546.8,18.91,5.77,2.17,0,*7D
1535029372.0,3435,23.06,74544.3,18.91,5.33,1.71,0,*7F
1535029373.22,3436,23.13,74548.0,18.91,5.15,1.55,0,*7E
1535029374.44,3437,23.06,74546.0,18.91,5.15,1.71,0,*79
1535029375.64,3438,23.06,74546.3,18.89,5.41,2.09,0,*72
1535029376.88,3439,23.13,74550.5,18.91,5.77,2.55,0,*76
1535029378.08,3440,23.13,74546.5,18.91,5.67,2.31,0,*7B
1535029379.28,3441,23.06,74546.3,18.89,5.33,2.09,0,*79
1535029380.49,3442,23.06,74544.5,18.89,5.71,2.51,0,*71
1535029381.71,3443,23.13,74548.0,18.89,5.51,2.47,0,*75
1535029382.95,3444,23.06,74544.0,18.91,5.77,2.77,0,*7C
1535029384.19,3445,23.13,74546.8,18.89,5.93,3.07,0,*78
1535029385.41,3446,23.13,74550.3,18.91,5.67,2.85,0,*72
1535029386.64,3447,23.13,74548.3,18.89,4.93,2.09,0,*74
1535029387.84,3448,23.06,74546.5,18.89,5.07,2.25,0,*79
1535029389.07,3449,23.06,74546.0,18.89,5.05,2.25,0,*7A
1535029390.3,3450,23.13,74544.8,18.85,4.79,2.09,0,*7A
1535029391.54,3451,23.13,74544.5,18.87,5.51,2.85,0,*76
1535029392.78,3452,23.13,74544.0,18.87,5.99,3.41,0,*78
1535029394.02,3453,23.13,74546.0,18.85,5.85,3.41,0,*76
1535029395.24,3454,23.06,74546.5,18.85,5.51,3.07,0,*7A
1535029396.42,3455,23.13,74546.3,18.85,5.71,3.25,0,*79
1535029397.61,3456,23.13,74546.8,18.85,5.63,3.29,0,*75
1535029398.83,3457,23.06,74542.8,18.85,5.51,3.19,0,*76
1535029400.02,3458,23.06,74544.0,18.85,5.49,3.19,0,*70
1535029401.22,3459,23.06,74546.3,18.85,5.29,3.07,0,*78
1535029402.44,3460,23.13,74544.8,18.81,5.27,3.11,0,*7F
1535029403.69,3461,23.13,74544.8,18.79,5.55,3.45,0,*7D
1535029404.89,3462,23.13,74548.0,18.79,5.37,3.25,0,*7C
1535029406.1,3463,23.06,74544.3,18.77,5.01,2.95,0,*7C
1535029407.3,3464,23.06,74544.5,18.77,4.97,2.95,0,*75
1535029408.5,3465,23.13,74544.5,18.75,5.15,3.25,0,*77
1535029409.74,3466,23.06,74544.5,18.75,5.77,3.97,0,*79
1535029410.99,3467,23.13,74544.3,18.75,5.73,3.97,0,*7C
1535029412.22,3468,23.06,74542.3,18.75,5.89,4.23,0,*7E
1535029413.42,3469,23.13,74546.0,18.75,6.07,4.45,0,*7A
1535029414.63,3470,23.13,74546.5,18.75,5.95,4.45,0,*7A
1535029415.86,3471,23.13,74546.8,18.75,6.33,4.79,0,*7B
1535029417.05,3472,23.13,74546.3,18.73,6.33,4.81,0,*79
1535029418.28,3473,23.06,74542.5,18.75,6.07,4.71,0,*76
1535029419.49,3474,23.13,74544.5,18.73,6.47,5.15,0,*70
1535029420.7,3475,23.13,74544.5,18.73,6.11,4.79,0,*79
1535029421.94,3476,23.13,74544.5,18.73,6.43,5.27,0,*77
1535029423.15,3477,23.13,74546.8,18.73,6.39,5.07,0,*79
1535029424.38,3478,23.06,74542.0,18.75,6.47,5.37,0,*7A
1535029425.61,3479,23.06,74544.5,18.71,6.73,5.45,0,*7D
1535029426.84,3480,23.13,74544.5,18.71,6.53,5.49,0,*75
1535029428.07,3481,23.13,74548.5,18.71,6.73,5.59,0,*77
1535029429.27,3482,23.13,74544.8,18.73,6.33,5.19,0,*76
1535029430.46,3483,23.13,74548.3,18.71,5.37,4.15,0,*7F
1535029431.62,3484,23.06,74542.0,18.67,5.45,4.19,0,*76
1535029432.84,3485,23.13,74546.3,18.65,5.55,4.45,0,*7D
1535029434.03,3486,23.13,74544.0,18.67,6.33,5.23,0,*7E
1535029435.29,3487,23.13,74544.8,18.65,5.85,4.71,0,*75
1535029436.51,3488,23.13,74550.0,18.63,5.73,4.59,0,*7F
1535029437.73,3489,23.06,74544.5,18.57,5.59,4.59,0,*71
1535029438.97,3490,23.13,74550.8,18.57,6.11,5.01,0,*7A
1535029440.19,3491,23.13,74544.8,18.53,6.07,5.05,0,*7C
1535029441.41,3492,23.13,74546.5,18.53,5.67,4.59,0,*72
1535029442.63,3493,23.13,74550.5,18.49,5.55,4.49,0,*78
1535029443.83,3494,23.13,74548.3,18.49,5.37,4.37,0,*72
1535029445.05,3495,23.13,74548.3,18.43,5.85,4.79,0,*7A
1535029446.28,3496,23.13,74548.3,18.45,6.35,5.29,0,*73
1535029447.52,3497,23.13,74544.5,18.41,6.73,5.71,0,*79
1535029448.74,3498,23.13,74544.3,18.37,6.57,5.49,0,*7A
1535029449.98,3499,23.13,74548.0,18.41,6.91,6.03,0,*7D
1535029451.22,3500,23.06,74544.8,18.37,7.73,6.69,0,*7C
1535029452.43,3501,23.13,74548.8,18.35,7.83,6.83,0,*74
1535029453.63,3502,23.13,74548.3,18.35,8.01,7.01,0,*79
1535029454.87,3503,23.13,74544.5,18.37,7.73,6.57,0,*72
1535029456.11,3504,23.13,74550.0,18.35,7.83,6.65,0,*79
1535029457.35,3505,23.13,74550.3,18.35,7.83,6.69,0,*74
1535029458.59,3506,23.06,74544.5,18.37,7.95,6.73,0,*79
1535029459.84,3507,23.13,74550.3,18.35,7.11,5.85,0,*7C
1535029461.04,3508,23.13,74546.5,18.33,6.69,5.37,0,*72
1535029462.28,3509,23.13,74548.0,18.31,6.33,5.01,0,*7B
1535029463.48,3510,23.13,74550.8,18.29,6.73,5.45,0,*7E
1535029464.69,3511,23.13,74546.8,18.27,6.97,5.59,0,*76
1535029465.89,3512,23.13,74550.3,18.27,7.55,6.25,0,*72
1535029467.12,3513,23.13,74548.0,18.27,7.65,6.25,0,*70
1535029468.37,3514,23.13,74550.3,18.27,7.77,6.39,0,*79
1535029469.58,3515,23.13,74546.3,18.27,7.97,6.57,0,*7E
1535029470.78,3516,23.13,74548.8,18.25,8.01,6.57,0,*7F
1535029471.98,3517,23.13,74548.8,18.25,8.05,6.47,0,*7B
1535029473.19,3518,23.13,74548.3,18.25,7.79,6.13,0,*71
1535029474.39,3519,23.13,74550.5,18.25,7.79,6.13,0,*70
1535029475.62,3520,23.13,74548.5,18.25,7.47,5.85,0,*7B
1535029476.85,3521,23.13,74548.3,18.23,7.11,5.41,0,*77
1535029478.08,3522,23.13,74548.0,18.23,6.87,5.15,0,*7B
1535029479.29,3523,23.13,74548.8,18.19,7.29,5.67,0,*73
1535029480.55,3524,23.13,74546.8,18.19,7.87,6.17,0,*74
1535029481.77,3525,23.13,74550.0,18.19,7.97,6.35,0,*74
1535029482.94,3526,23.13,74550.3,18.21,7.97,6.29,0,*71
1535029484.16,3527,23.13,74548.3,18.19,7.41,5.77,0,*78
1535029485.39,3528,23.13,74548.0,18.19,7.55,5.85,0,*7F
1535029486.61,3529,23.13,74550.5,18.19,7.29,5.67,0,*79
1535029487.82,3530,23.13,74546.3,18.19,7.29,5.71,0,*76
1535029489.0,3531,23.13,74548.3,18.13,7.55,5.95,0,*7C
1535029490.23,3532,23.13,74550.5,18.13,7.77,6.17,0,*76
1535029491.44,3533,23.13,74546.3,18.13,7.95,6.33,0,*7D
1535029492.67,3534,23.13,74548.3,18.13,7.95,6.39,0,*70
1535029493.89,3535,23.13,74550.8,18.13,7.77,6.17,0,*71
1535029495.08,3536,23.13,74544.8,18.17,7.79,6.25,0,*79
1535029496.27,3537,23.13,74550.8,18.17,7.59,6.03,0,*7E
1535029497.49,3538,23.13,74548.0,18.17,7.47,5.89,0,*7F
1535029498.69,3539,23.13,74550.5,18.13,7.01,5.51,0,*7D
1535029499.9,3540,23.13,74546.5,18.13,7.19,5.71,0,*78
1535029501.1,3541,23.13,74550.8,18.17,7.41,5.93,0,*7C
1535029502.3,3542,23.13,74546.5,18.13,7.45,5.85,0,*78
1535029503.5,3543,23.13,74548.3,18.11,7.01,5.41,0,*73
1535029504.73,3544,23.13,74550.5,18.11,6.91,5.37,0,*7D
1535029505.96,3545,23.13,74548.5,18.11,6.91,5.37,0,*7C
1535029507.14,3546,23.13,74546.3,18.09,6.75,5.33,0,*78
1535029508.37,3547,23.13,74548.0,18.09,7.23,5.73,0,*7F
1535029509.6,3548,23.13,74548.3,18.11,7.47,5.99,0,*7F
1535029510.81,3549,23.13,74550.5,18.09,7.55,6.13,0,*75
1535029512.02,3550,23.13,74548.0,18.09,7.29,5.85,0,*7A
1535029513.25,3551,23.13,74548.3,18.07,7.11,5.63,0,*76
1535029514.48,3552,23.13,74548.8,18.07,6.83,5.51,0,*7E
1535029515.72,3553,23.13,74550.0,18.07,6.51,5.11,0,*74
1535029516.95,3554,23.13,74548.8,18.05,6.25,5.01,0,*73
1535029518.2,3555,23.13,74550.0,18.01,6.13,4.79,0,*7D
1535029519.41,3556,23.13,74548.0,18.01,6.29,5.11,0,*78
1535029520.64,3557,23.13,74550.8,18.01,6.43,5.33,0,*75
1535029521.86,3558,23.13,74548.8,17.99,6.03,5.01,0,*71
1535029523.08,3559,23.13,74548.0,17.97,6.39,5.29,0,*7D
1535029524.31,3560,23.13,74550.5,17.97,6.69,5.59,0,*75
1535029525.51,3561,23.13,74550.0,17.95,6.87,5.95,0,*76
1535029526.71,3562,23.13,74548.0,17.95,6.79,5.89,0,*79
1535029527.89,3563,23.13,74550.8,17.95,6.75,5.95,0,*79
1535029529.06,3564,23.13,74548.8,17.91,7.05,6.33,0,*73
1535029530.24,3565,23.13,74550.5,17.91,6.97,6.07,0,*7F
1535029531.41,3566,23.13,74548.3,17.91,6.79,5.99,0,*78
1535029532.63,3567,23.13,74548.8,17.91,6.53,5.81,0,*78
1535029533.88,3568,23.13,74550.3,17.89,6.53,5.81,0,*7E
1535029535.09,3569,23.13,74544.8,17.87,6.39,5.71,0,*72
1535029536.31,3570,23.13,74546.8,17.87,6.57,5.89,0,*75
1535029537.49,3571,23.13,74546.3,17.87,6.83,6.25,0,*78
1535029538.7,3572,23.13,74548.0,17.87,7.05,6.47,0,*70
1535029539.91,3573,23.13,74548.8,17.87,7.09,6.47,0,*7D
1535029541.16,3574,23.13,74550.5,17.85,6.73,6.13,0,*75
1535029542.41,3575,23.13,74546.8,17.85,6.91,6.35,0,*7C
1535029543.59,3576,23.13,74544.8,17.83,6.79,6.33,0,*79
1535029544.79,3577,23.13,74550.3,17.83,6.93,6.47,0,*7F
1535029546.01,3578,23.13,74544.0,17.83,7.15,6.47,0,*7F
1535029547.23,3579,23.13,74548.0,17.83,6.57,6.13,0,*78
1535029548.43,3580,23.13,74548.0,17.83,6.79,6.35,0,*76
1535029549.68,3581,23.13,74548.3,17.81,6.91,6.43,0,*72
1535029550.91,3582,23.13,74546.5,17.81,6.75,6.39,0,*76
1535029552.13,3583,23.13,74546.3,17.81,6.61,6.21,0,*7B
1535029553.38,3584,23.13,74548.0,17.81,6.53,6.17,0,*78
1535029554.58,3585,23.13,74546.5,17.81,6.07,5.71,0,*7B
1535029555.76,3586,23.13,74550.5,17.79,5.67,5.29,0,*77
1535029556.98,3587,23.13,74550.0,17.77,6.03,5.71,0,*74
1535029558.19,3588,23.13,74548.3,17.75,6.21,5.85,0,*72
1535029559.4,3589,23.13,74550.8,17.73,6.29,5.95,0,*7C
1535029560.61,3590,23.13,74548.8,17.73,6.29,6.07,0,*7C
1535029561.84,3591,23.13,74544.8,17.73,6.61,6.29,0,*7D
1535029563.04,3592,23.13,74550.8,17.69,6.51,6.29,0,*76
1535029564.24,3593,23.13,74546.3,17.69,6.75,6.43,0,*7D
1535029565.46,3594,23.13,74548.3,17.69,6.73,6.53,0,*7D
1535029566.67,3595,23.13,74546.0,17.69,6.51,6.21,0,*79
1535029567.89,3596,23.13,74546.5,17.69,6.87,6.53,0,*74
1535029569.13,3597,23.13,74548.3,17.67,6.61,6.39,0,*7F
1535029570.34,3598,23.13,74550.3,17.67,6.25,6.03,0,*79
1535029571.54,3599,23.13,74550.8,17.67,6.25,6.07,0,*7C
1535029572.73,3600,23.13,74544.0,17.65,6.25,6.03,0,*79
1535029573.96,3601,23.13,74544.3,17.65,6.53,6.43,0,*7D
1535029575.18,3602,23.13,74546.5,17.63,6.93,6.73,0,*77
1535029576.41,3603,23.13,74548.5,17.63,7.05,6.91,0,*74
1535029577.61,3604,23.13,74544.3,17.65,7.15,7.05,0,*78
1535029578.83,3605,23.13,74546.8,17.65,7.15,7.11,0,*7C
1535029580.03,3606,23.13,74544.0,17.65,7.19,7.09,0,*7A
1535029581.2,3607,23.13,74548.0,17.65,7.05,7.01,0,*7E
1535029582.43,3608,23.13,74544.5,17.65,6.47,6.43,0,*71
1535029583.6,3609,23.13,74544.0,17.65,6.79,6.79,0,*74
1535029584.77,3610,23.13,74544.8,17.65,7.01,6.93,0,*76
1535029585.99,3611,23.13,74548.3,17.65,6.69,6.69,0,*7D
1535029587.22,3612,23.13,74546.3,17.65,6.53,6.47,0,*7B
1535029588.45,3613,23.13,74548.8,17.63,6.21,6.13,0,*78
1535029589.63,3614,23.13,74546.3,17.61,6.33,6.25,0,*7B
1535029590.87,3615,23.13,74544.8,17.61,6.43,6.51,0,*7E
1535029592.05,3616,23.13,74546.8,17.61,6.11,6.11,0,*7E
1535029593.26,3617,23.13,74546.0,17.61,6.65,6.75,0,*7E
1535029594.49,3618,23.13,74546.8,17.61,6.51,6.53,0,*72
1535029595.72,3619,23.13,74544.3,17.61,6.51,6.53,0,*73
1535029596.95,3620,23.13,74544.3,17.61,6.39,6.39,0,*7B
1535029598.18,3621,23.13,74544.8,17.61,6.39,6.39,0,*7A
1535029599.41,3622,23.13,74548.5,17.57,6.73,6.87,0,*77
1535029600.63,3623,23.13,74546.3,17.59,6.87,7.05,0,*78
1535029601.84,3624,23.13,74544.8,17.57,6.73,6.75,0,*7C
1535029603.07,3625,23.13,74548.5,17.57,6.51,6.61,0,*78
1535029604.27,3626,23.13,74544.8,17.57,6.75,6.87,0,*75
1535029605.49,3627,23.13,74548.3,17.59,6.57,6.75,0,*77
1535029606.69,3628,23.13,74546.3,17.59,6.75,6.93,0,*70
1535029607.92,3629,23.13,74546.8,17.59,6.65,6.75,0,*78
1535029609.14,3630,23.13,74546.8,17.57,6.73,6.87,0,*74
1535029610.35,3631,23.13,74548.3,17.57,6.65,6.75,0,*7F
1535029611.55,3632,23.13,74548.0,17.59,6.97,7.09,0,*75
1535029612.73,3633,23.13,74544.5,17.57,6.83,6.93,0,*7D
1535029613.93,3634,23.13,74544.0,17.57,6.87,6.97,0,*7A
1535029615.16,3635,23.13,74546.3,17.57,6.87,7.15,0,*70
1535029616.39,3636,23.13,74544.8,17.57,7.15,7.27,0,*78
1535029617.56,3637,23.13,74548.0,17.57,7.45,7.55,0,*79
1535029618.79,3638,23.13,74546.3,17.57,7.65,7.73,0,*70
1535029619.99,3639,23.13,74546.8,17.59,7.97,8.01,0,*78
1535029621.16,3640,23.13,74550.3,17.57,7.97,8.09,0,*70
1535029622.36,3641,23.13,74544.5,17.59,7.97,8.01,0,*77
1535029623.58,3642,23.13,74546.5,17.57,7.73,7.65,0,*7D
1535029624.81,3643,23.13,74550.0,17.57,7.87,7.95,0,*78
1535029626.04,3644,23.13,74544.5,17.59,7.95,8.01,0,*70
1535029627.24,3645,23.13,74548.0,17.59,7.97,8.01,0,*73
1535029628.48,3646,23.13,74544.8,17.59,7.83,7.87,0,*74
1535029629.68,3647,23.13,74546.0,17.59,8.09,8.09,0,*71
1535029630.88,3648,23.13,74546.8,17.57,8.29,8.19,0,*73
1535029632.11,3649,23.13,74550.3,17.61,8.55,8.47,0,*77
1535029633.29,3650,23.13,74544.0,17.61,8.65,8.45,0,*7E
1535029634.49,3651,23.13,74544.5,17.61,8.47,8.23,0,*7F
1535029635.7,3652,23.13,74550.3,17.61,8.33,8.05,0,*7B
1535029636.95,3653,23.13,74548.8,17.59,8.29,7.95,0,*7C
1535029638.13,3654,23.13,74544.5,17.61,8.69,8.27,0,*72
1535029639.34,3655,23.13,74548.0,17.61,8.15,7.65,0,*71
1535029640.57,3656,23.13,74546.5,17.61,8.33,7.69,0,*7A
1535029641.78,3657,23.13,74548.0,17.63,8.79,8.15,0,*73
1535029642.99,3658,23.13,74546.8,17.61,8.93,8.15,0,*7A
1535029644.18,3659,23.13,74546.5,17.61,9.03,8.27,0,*72
1535029645.39,3660,23.13,74546.0,17.63,8.87,8.05,0,*77
1535029646.59,3661,23.13,74546.5,17.61,8.89,8.05,0,*7A
1535029647.8,3662,23.13,74546.8,17.63,8.87,7.79,0,*71
1535029649.01,3663,23.13,74544.5,17.61,8.75,7.59,0,*7D
1535029650.21,3664,23.13,74544.3,17.61,8.75,7.55,0,*76
1535029651.41,3665,23.13,74546.5,17.59,8.61,7.41,0,*7C
1535029652.66,3666,23.13,74548.0,17.59,8.97,7.77,0,*73
1535029653.87,3667,23.13,74544.5,17.57,9.47,8.13,0,*7D
1535029655.12,3668,23.13,74544.5,17.59,9.53,8.13,0,*79
1535029656.32,3669,23.13,74544.0,17.59,9.47,7.97,0,*7E
1535029657.54,3670,23.13,74544.5,17.59,9.21,7.73,0,*7C
1535029658.79,3671,23.13,74548.8,17.59,9.39,7.83,0,*7B
1535029660.05,3672,23.13,74544.0,17.59,9.53,7.95,0,*73
1535029661.25,3673,23.13,74548.8,17.61,9.67,8.13,0,*7F
1535029662.46,3674,23.13,74546.8,17.61,9.61,7.79,0,*7D
1535029663.68,3675,23.13,74542.8,17.59,9.43,7.65,0,*7A
1535029664.91,3676,23.13,74544.5,17.61,9.01,7.11,0,*77
1535029666.12,3677,23.13,74546.5,17.61,8.89,7.09,0,*7E
1535029667.32,3678,23.13,74544.0,17.59,9.21,7.29,0,*7B
1535029668.54,3679,23.13,74544.5,17.59,8.75,6.75,0,*72
1535029669.74,3680,23.13,74540.8,17.57,9.39,7.55,0,*70
1535029670.94,3681,23.13,74544.8,17.57,9.29,7.19,0,*78
1535029672.14,3682,23.13,74546.8,17.57,8.97,6.93,0,*7C
1535029673.32,3683,23.13,74548.8,17.57,9.43,7.29,0,*75
1535029674.52,3684,23.13,74544.0,17.57,9.11,7.05,0,*7B
1535029675.69,3685,23.13,74544.5,17.57,9.33,7.09,0,*76
1535029676.89,3686,23.13,74546.5,17.57,9.53,7.33,0,*7A
1535029678.09,3687,23.13,74546.0,17.57,9.21,6.87,0,*70
1535029679.26,3688,23.13,74544.0,17.57,9.33,7.09,0,*7B
1535029680.46,3689,23.13,74544.8,17.57,9.77,7.45,0,*72
1535029681.67,3690,23.13,74546.8,17.57,9.77,7.51,0,*7F
1535029682.86,3691,23.13,74548.8,17.53,9.61,7.33,0,*79
1535029684.09,3692,23.13,74544.0,17.55,9.81,7.37,0,*76
1535029685.29,3693,23.13,74544.5,17.57,9.77,7.41,0,*7D
1535029686.49,3694,23.13,74546.8,17.57,9.39,6.93,0,*7E
1535029687.66,3695,23.13,74542.0,17.57,9.21,6.83,0,*77
1535029688.88,3696,23.13,74548.0,17.57,9.19,6.61,0,*73
1535029690.06,3697,23.13,74544.3,17.57,9.33,6.83,0,*76
1535029691.24,3698,23.13,74548.8,17.57,9.75,7.29,0,*7A
1535029692.46,3699,23.13,74544.0,17.57,9.57,7.15,0,*74
1535029693.64,3700,23.13,74548.0,17.57,9.47,6.97,0,*7F
1535029694.86,3701,23.13,74546.3,17.57,9.53,7.15,0,*70
1535029696.04,3702,23.13,74544.8,17.57,9.47,6.97,0,*7D
1535029697.29,3703,23.13,74544.5,17.55,9.61,7.27,0,*70
1535029698.5,3704,23.13,74544.3,17.53,9.39,6.97,0,*76
1535029699.69,3705,23.13,74542.3,17.55,9.29,6.93,0,*74
1535029700.92,3706,23.13,74544.8,17.55,9.61,7.29,0,*7B
1535029702.13,3707,23.13,74544.0,17.55,9.71,7.37,0,*74
1535029703.36,3708,23.13,74544.5,17.55,9.91,7.61,0,*76
1535029704.61,3709,23.13,74544.5,17.55,9.15,6.91,0,*75
1535029705.84,3710,23.13,74546.3,17.55,9.15,6.93,0,*7F
1535029707.06,3711,23.13,74544.5,17.55,9.19,7.01,0,*78
1535029708.31,3712,23.13,74542.5,17.55,9.35,7.23,0,*75
1535029709.49,3713,23.13,74546.0,17.53,9.33,7.37,0,*71
1535029710.69,3714,23.13,74546.0,17.55,9.63,7.79,0,*7F
1535029711.9,3715,23.13,74546.0,17.55,9.71,7.97,0,*7D
1535029713.1,3716,23.13,74544.5,17.53,9.35,7.59,0,*7A
1535029714.28,3717,23.13,74544.8,17.53,9.67,8.01,0,*7E
1535029715.51,3718,23.13,74546.0,17.55,9.85,8.09,0,*73
1535029716.71,3719,23.13,74546.8,17.53,9.89,8.15,0,*75
1535029717.92,3720,23.13,74542.3,17.53,9.81,8.23,0,*72
1535029719.14,3721,23.13,74546.3,17.55,9.61,8.05,0,*7F
1535029720.37,3722,23.13,74544.5,17.55,9.61,8.05,0,*7C
1535029721.59,3723,23.13,74546.8,17.55,9.61,8.05,0,*7D
1535029722.82,3724,23.13,74546.0,17.55,9.49,7.97,0,*74
1535029724.02,3725,23.13,74544.0,17.53,9.21,7.65,0,*70
1535029725.22,3726,23.13,74546.5,17.51,9.47,8.01,0,*7C
1535029726.44,3727,23.13,74546.8,17.51,9.61,8.15,0,*7C
1535029727.67,3728,23.13,74546.8,17.51,9.81,8.45,0,*78
1535029728.89,3729,23.13,74544.0,17.51,9.21,7.77,0,*7D